User: anonymous   Login
Location: Unspecified
(0.0000°N, 0.0000°E)
Time: 18:06:23
(UTC+00:00)
Language:

deb Explorer IX - Orbit

View from above orbital plane
View from above orbital plane
View from above satellite
View from above satellite

Ground track
Ground track

The orbit data is extracted from the following two-line orbital elements,

1 00085U 61004C   21211.95101672  .00004943  00000-0  10601-2 0  9992
2 00085  38.7668  94.8531 0382416 343.5851  15.2798 14.21980039989236
Epoch (UTC): 30 July 2021 22:49:27
Eccentricity: 0.0382416
inclination: 38.7668°
perigee height: 543 km
apogee height: 1094 km
right ascension of ascending node: 94.8531°
argument of perigee: 343.5851°
revolutions per day: 14.21980039
mean anomaly at epoch: 15.2798°
orbit number at epoch: 98923

The dashed part of the orbit path shows where the satellite is in the earth's shadow,  

DLR